GROUP/SHIP,CRUISE_DESIGNATION,JD_GMT,DATE_DDMMYYYY,TIME_HH:MM:SS,LAT_DEC_DEGREE,LONG_DEC_DEGREE,xCO2W_PPM,xCO2A_PPM,PRES_EQUIL_hPa,PRES_SEALEVEL_hPa,EqTEMP_C,SST(TSG)_C,SAL(TSG)_PERMIL,WATER_FLOW_L/MIN,GAS_FLOW_IR_ML/MIN,TEMP_IR_C,PRES_IR_hPa,SHIP_HEADING_TRUE_DEGREE,SHIP_SPEED_KNOT,WIND_DIR_REL_DEGREE,WIND_SPEED_REL_M/S,fCO2W@SST_uATM,QC_FLAG_WATER,fCO2A_uATM,QC_FLAG_AIR,dfCO2_uATM,FLUORO_uG/L,WIND_SPEED_TRUE_M/S,WIND_DIR_TRUE_DEGREE,AIR_TEMP_C
AOML_Brown,RB200302,50.639,19022003,15:20:32,25.899,-77.610,356.08,377.55,1022.04,1021.96,24.58,24.42,36.51,10.92,178.55,30.20,1022.04,-9,-9,4.60,11.09,345.41,2,368.55,2,-23.15,0.69,5.21,112.22,
AOML_Brown,RB200303,50.642,19022003,15:24:52,25.897,-77.595,355.89,377.55,1022.31,1021.97,24.58,24.43,36.50,10.92,176.08,30.25,1022.31,-9,-9,4.70,11.19,345.43,2,368.55,2,-23.12,0.68,5.26,112.03,
AOML_Brown,RB200304,50.646,19022003,15:29:32,25.894,-77.578,355.97,377.55,1022.07,1022.08,24.59,24.40,36.54,11.10,178.98,30.29,1022.07,-9,-9,3.10,10.89,344.90,2,368.55,2,-23.66,0.67,4.94,108.85,
AOML_Brown,RB200305,50.649,19022003,15:33:52,25.892,-77.563,356.10,377.55,1022.11,1021.99,24.55,24.38,36.54,10.97,182.37,30.33,1022.11,-9,-9,0.20,10.89,345.34,2,368.55,2,-23.21,0.68,4.76,103.46,
AOML_Brown,RB200306,50.660,19022003,15:50:32,25.878,-77.505,352.86,377.55,1022.26,1022.06,24.49,24.31,36.70,10.94,173.12,30.48,1022.26,-9,-9,356.40,10.39,342.09,2,368.55,2,-26.47,0.66,4.39,111.87,
AOML_Brown,RB200307,50.663,19022003,15:54:52,25.871,-77.491,352.31,377.55,1022.12,1022.03,24.50,24.39,36.65,10.91,175.04,30.51,1022.12,-9,-9,357.30,10.98,342.49,2,368.55,2,-26.06,0.66,4.98,115.04,
AOML_Brown,RB200308,50.666,19022003,15:59:32,25.864,-77.476,352.21,377.55,1022.11,1022.06,24.52,24.31,36.75,10.76,175.87,30.53,1022.11,-9,-9,356.60,11.59,341.01,2,368.55,2,-27.54,0.65,5.48,113.01,
AOML_Brown,RB200309,50.669,19022003,16:03:52,25.857,-77.463,352.23,377.55,1022.03,1022.03,24.55,24.41,36.70,10.88,176.22,30.55,1022.03,-9,-9,353.40,12.09,341.97,2,368.55,2,-26.59,0.65,5.99,107.30,
AOML_Brown,RB200310,50.681,19022003,16:20:32,25.829,-77.410,351.25,376.84,1021.91,1021.76,24.52,24.29,36.76,10.81,176.99,30.66,1021.91,-9,-9,348.10,11.59,339.85,2,367.69,2,-27.83,0.65,5.64,95.55,
AOML_Brown,RB200311,50.684,19022003,16:24:52,25.821,-77.396,351.06,376.84,1021.80,1021.63,24.53,24.35,36.72,10.96,180.13,30.69,1021.80,-9,-9,346.70,11.88,340.22,2,367.69,2,-27.47,0.65,6.00,93.09,
AOML_Brown,RB200312,50.687,19022003,16:29:32,25.813,-77.381,351.06,376.84,1021.74,1021.61,24.52,24.31,36.74,10.92,179.27,30.71,1021.74,-9,-9,346.50,10.78,339.76,2,367.69,2,-27.93,0.65,4.96,89.81,
AOML_Brown,RB200313,50.690,19022003,16:33:52,25.805,-77.367,350.92,376.84,1021.88,1021.71,24.50,24.39,36.69,10.80,180.43,30.73,1021.88,-9,-9,352.20,11.19,341.02,2,367.69,2,-26.66,0.65,4.99,102.89,
AOML_Brown,RB200314,50.702,19022003,16:50:32,25.777,-77.313,349.41,376.84,1021.71,1021.55,24.69,24.62,36.74,10.90,174.79,30.81,1021.71,-9,-9,342.90,12.09,339.89,2,367.69,2,-27.79,0.62,6.58,81.68,
AOML_Brown,RB200315,50.705,19022003,16:54:52,25.771,-77.299,349.33,376.84,1021.69,1021.53,24.76,24.57,36.80,10.82,174.96,30.83,1021.69,-9,-9,345.70,12.09,338.27,2,367.69,2,-29.42,0.62,6.25,83.55,
AOML_Brown,RB200316,50.708,19022003,16:59:32,25.765,-77.283,349.23,376.84,1021.67,1021.42,24.75,24.61,36.78,10.87,176.37,30.84,1021.67,-9,-9,346.10,11.98,338.71,2,367.69,2,-28.97,0.63,6.17,83.99,
AOML_Brown,RB200317,50.711,19022003,17:03:52,25.760,-77.268,349.43,376.84,1021.57,1021.47,24.78,24.63,36.73,10.82,176.03,30.85,1021.57,-9,-9,343.30,11.29,338.74,2,367.69,2,-28.95,0.63,5.75,78.32,
AOML_Brown,RB200318,50.723,19022003,17:20:32,25.737,-77.213,349.73,377.05,1021.59,1021.44,24.68,24.53,36.72,11.02,178.85,30.92,1021.59,-9,-9,347.70,11.88,339.16,2,367.63,2,-28.48,0.63,6.05,85.04,
AOML_Brown,RB200319,50.726,19022003,17:24:52,25.732,-77.198,349.94,377.05,1021.53,1021.18,24.67,24.55,36.72,10.85,178.78,30.94,1021.53,-9,-9,348.90,11.79,339.67,2,367.63,2,-27.96,0.63,5.95,78.96,
AOML_Brown,RB200320,50.729,19022003,17:29:32,25.731,-77.182,350.11,377.05,1021.68,1021.37,24.70,24.57,36.73,10.50,179.73,30.95,1021.68,-9,-9,1.00,12.38,339.81,2,367.63,2,-27.83,0.63,6.36,90.95,
AOML_Brown,RB200321,50.732,19022003,17:33:52,25.731,-77.166,350.27,377.05,1021.47,1021.44,24.73,24.52,36.73,10.81,180.20,30.96,1021.47,-9,-9,0.70,11.39,338.89,2,367.63,2,-28.75,0.64,5.37,88.09,
AOML_Brown,RB200322,50.743,19022003,17:50:32,25.731,-77.106,349.90,377.05,1021.10,1020.98,24.61,24.47,36.72,10.96,174.34,31.04,1021.10,-9,-9,5.90,12.29,339.27,2,367.63,2,-28.37,0.64,6.53,97.15,
AOML_Brown,RB200323,50.746,19022003,17:54:52,25.731,-77.090,350.00,377.05,1021.17,1021.01,24.62,24.55,36.75,11.08,173.98,31.06,1021.17,-9,-9,4.80,13.18,340.28,2,367.63,2,-27.35,0.62,7.15,93.67,
AOML_Brown,RB200324,50.750,19022003,17:59:32,25.732,-77.074,350.15,377.05,1021.11,1021.05,24.64,24.55,36.75,10.91,176.11,31.07,1021.11,-9,-9,4.80,13.28,340.11,2,367.63,2,-27.52,0.64,7.09,98.22,
AOML_Brown,RB200325,50.753,19022003,18:03:52,25.732,-77.058,350.15,377.05,1021.19,1020.88,24.75,24.64,36.76,10.57,177.85,31.08,1021.19,-9,-9,1.90,13.68,339.91,2,367.63,2,-27.72,0.64,7.36,90.63,
AOML_Brown,RB200326,50.764,19022003,18:20:32,25.734,-76.995,351.46,376.47,1020.76,1020.64,24.77,24.56,36.69,10.78,176.32,31.16,1020.76,-9,-9,359.30,12.09,339.72,2,366.94,2,-27.23,0.64,5.86,85.96,
AOML_Brown,RB200327,50.767,19022003,18:24:52,25.735,-76.979,351.77,376.47,1020.88,1020.26,24.60,24.39,36.63,10.97,180.01,31.18,1020.88,-9,-9,355.90,13.58,340.16,2,366.94,2,-26.78,0.66,7.34,79.09,
AOML_Brown,RB200328,50.771,19022003,18:29:32,25.728,-76.964,352.28,376.47,1020.71,1020.39,24.55,24.45,36.66,10.71,180.22,31.19,1020.71,-9,-9,336.70,12.29,342.02,2,366.94,2,-24.92,0.66,6.90,79.96,
AOML_Brown,RB200329,50.774,19022003,18:33:52,25.725,-76.948,352.23,376.47,1020.59,1020.52,24.59,24.48,36.68,10.93,181.43,31.19,1020.59,-9,-9,356.60,13.68,341.72,2,366.94,2,-25.22,0.66,7.27,79.59,
AOML_Brown,RB200330,50.785,19022003,18:50:32,25.729,-76.886,351.98,376.47,1020.60,1020.29,24.50,24.36,36.62,11.07,172.66,31.26,1020.60,-9,-9,359.30,13.38,341.22,2,366.94,2,-25.72,0.66,7.16,85.09,
AOML_Brown,RB200331,50.788,19022003,18:54:52,25.730,-76.869,352.53,376.47,1020.56,1020.16,24.50,24.36,36.61,10.57,176.28,31.27,1020.56,-9,-9,359.80,14.38,341.66,2,366.94,2,-25.29,0.67,8.15,85.35,
AOML_Brown,RB200332,50.791,19022003,18:59:32,25.731,-76.852,352.78,376.47,1020.42,1020.17,24.50,24.36,36.61,10.93,175.74,31.28,1020.42,-9,-9,358.50,13.98,341.93,2,366.94,2,-25.01,0.67,7.71,83.38,
AOML_Brown,RB200333,50.794,19022003,19:03:52,25.732,-76.836,352.88,376.47,1020.48,1020.19,24.49,24.35,36.61,10.83,177.74,31.28,1020.48,-9,-9,0.60,12.09,342.01,2,366.94,2,-24.93,0.66,5.76,89.36,
AOML_Brown,RB200334,50.806,19022003,19:20:32,25.733,-76.772,352.66,376.34,1020.33,1020.20,24.48,24.35,36.60,11.00,177.16,31.35,1020.33,-9,-9,1.30,12.29,341.87,2,366.37,2,-24.50,0.66,5.86,85.70,
AOML_Brown,RB200335,50.809,19022003,19:24:52,25.733,-76.756,352.64,376.34,1020.19,1020.04,24.66,24.73,36.74,10.90,179.10,31.36,1020.19,-9,-9,357.00,12.88,344.25,2,366.37,2,-22.12,0.65,6.57,83.01,
AOML_Brown,RB200336,50.812,19022003,19:29:32,25.733,-76.738,351.65,376.34,1020.31,1019.83,24.84,24.76,36.76,10.57,180.17,31.37,1020.31,-9,-9,0.10,13.78,341.29,2,366.37,2,-25.08,0.63,7.25,90.10,
AOML_Brown,RB200337,50.815,19022003,19:33:52,25.733,-76.722,350.98,376.34,1020.27,1020.25,24.86,24.77,36.76,10.95,181.80,31.37,1020.27,-9,-9,351.00,11.68,340.49,2,366.37,2,-25.88,0.63,7.10,73.28,
AOML_Brown,RB200338,50.827,19022003,19:50:32,25.735,-76.671,351.32,376.34,1020.23,1020.18,24.90,24.82,36.76,10.64,172.19,31.42,1020.23,-9,-9,2.20,13.08,340.97,2,366.37,2,-25.40,0.63,7.94,92.22,
AOML_Brown,RB200339,50.830,19022003,19:54:52,25.734,-76.658,351.46,376.34,1020.06,1019.89,24.94,24.81,36.77,10.77,175.95,31.43,1020.06,-9,-9,352.00,13.08,340.41,2,366.37,2,-25.96,0.64,7.32,83.20,
AOML_Brown,RB200340,50.833,19022003,19:59:32,25.729,-76.641,351.36,376.34,1020.15,1019.65,24.92,24.78,36.76,10.84,178.53,31.44,1020.15,-9,-9,338.90,12.68,340.24,2,366.37,2,-26.13,0.63,7.27,80.90,
AOML_Brown,RB200341,50.836,19022003,20:03:52,25.722,-76.628,351.34,376.34,1020.15,1019.50,24.89,24.73,36.76,10.52,178.49,31.45,1020.15,-9,-9,340.70,13.78,339.94,2,366.37,2,-26.44,0.64,8.13,85.31,
AOML_Brown,RB200342,50.848,19022003,20:20:32,25.694,-76.575,-9.00,376.35,1019.88,1019.70,24.68,24.73,36.76,-0.03,176.09,31.50,1019.88,-9,-9,341.10,11.48,-999.99,4,366.45,2,-999.99,0.64,6.27,84.83,
AOML_Brown,RB200343,50.851,19022003,20:24:52,25.687,-76.561,-9.00,376.35,1019.77,1019.73,24.63,24.73,36.76,-0.03,179.36,31.51,1019.77,-9,-9,343.60,12.29,-999.99,4,366.45,2,-999.99,0.64,6.82,89.62,
AOML_Brown,RB200344,50.854,19022003,20:29:32,25.679,-76.547,-9.00,376.35,1019.83,1019.72,24.58,24.48,36.76,-0.03,181.97,31.52,1019.83,-9,-9,339.90,11.59,-999.99,4,366.45,2,-999.99,0.64,6.57,82.97,
AOML_Brown,RB200345,50.857,19022003,20:33:52,25.672,-76.534,-9.00,376.35,1019.80,1019.60,24.53,24.40,36.74,-0.03,179.26,31.51,1019.80,-9,-9,341.40,11.68,-999.99,4,366.45,2,-999.99,0.64,6.32,82.97,
AOML_Brown,RB200346,50.868,19022003,20:50:32,25.645,-76.483,348.51,376.35,1019.67,1019.44,24.54,24.39,36.74,10.63,174.49,31.56,1019.67,-9,-9,341.40,11.79,337.32,2,366.45,2,-29.13,0.65,6.65,77.06,
AOML_Brown,RB200347,50.871,19022003,20:54:52,25.637,-76.470,348.17,376.35,1019.69,1019.46,24.51,24.37,36.73,10.68,175.96,31.58,1019.69,-9,-9,336.40,11.98,337.16,2,366.45,2,-29.29,0.65,6.83,75.56,
AOML_Brown,RB200348,50.875,19022003,20:59:32,25.630,-76.455,348.21,376.35,1019.74,1019.65,24.47,24.30,36.71,10.77,177.58,31.58,1019.74,-9,-9,336.20,11.19,336.88,2,366.45,2,-29.57,0.66,6.21,71.48,
AOML_Brown,RB200349,50.878,19022003,21:03:52,25.623,-76.442,348.49,376.35,1019.73,1019.52,24.41,24.24,36.67,10.72,178.30,31.57,1019.73,-9,-9,333.70,11.79,337.21,2,366.45,2,-29.24,0.67,6.82,68.47,
AOML_Brown,RB200350,50.889,19022003,21:20:32,25.595,-76.390,349.48,376.38,1019.48,1019.48,24.30,24.14,36.62,10.66,176.00,31.61,1019.48,-9,-9,338.50,12.29,338.29,2,366.65,2,-28.36,0.67,7.04,81.04,
AOML_Brown,RB200351,50.892,19022003,21:24:52,25.588,-76.377,349.69,376.38,1019.67,1019.53,24.28,24.13,36.62,10.35,177.69,31.61,1019.67,-9,-9,337.00,12.38,338.67,2,366.65,2,-27.98,0.67,7.31,77.47,
AOML_Brown,RB200352,50.896,19022003,21:29:32,25.580,-76.362,349.81,376.38,1019.71,1019.56,24.27,24.12,36.61,10.45,182.30,31.61,1019.71,-9,-9,341.70,12.29,338.76,2,366.65,2,-27.89,0.67,6.63,82.40,
AOML_Brown,RB200353,50.899,19022003,21:33:52,25.573,-76.348,349.90,376.38,1019.65,1019.21,24.27,24.13,36.61,10.50,182.52,31.61,1019.65,-9,-9,344.70,12.68,338.96,2,366.65,2,-27.69,0.67,6.92,89.49,
AOML_Brown,RB200354,50.910,19022003,21:50:32,25.544,-76.295,349.31,376.38,1019.63,1019.31,24.26,24.11,36.67,10.44,175.11,31.64,1019.63,-9,-9,338.50,12.99,338.35,2,366.65,2,-28.30,0.66,7.59,79.35,
AOML_Brown,RB200355,50.913,19022003,21:54:52,25.537,-76.281,348.62,376.38,1019.53,1019.36,24.23,24.07,36.70,10.66,176.64,31.65,1019.53,-9,-9,337.40,12.38,337.53,2,366.65,2,-29.12,0.66,7.21,74.48,
AOML_Brown,RB200356,50.916,19022003,21:59:32,25.530,-76.266,347.30,376.38,1019.67,1019.40,24.24,24.11,36.74,10.49,177.97,31.65,1019.67,-9,-9,342.00,12.68,336.68,2,366.65,2,-29.97,0.65,7.03,83.32,
AOML_Brown,RB200357,50.919,19022003,22:03:52,25.522,-76.252,346.28,376.38,1019.55,1019.38,24.26,24.15,36.74,10.66,177.42,31.63,1019.55,-9,-9,339.30,12.68,335.89,2,366.65,2,-30.76,0.65,7.12,78.50,
AOML_Brown,RB200358,50.931,19022003,22:20:32,25.495,-76.199,346.25,376.33,1019.62,1019.36,24.35,24.23,36.74,10.42,179.89,31.64,1019.62,-9,-9,343.10,11.59,335.61,2,366.56,2,-30.96,0.65,5.99,79.67,
AOML_Brown,RB200359,50.934,19022003,22:24:52,25.487,-76.185,346.98,376.33,1019.74,1019.35,24.38,24.25,36.74,10.28,181.48,31.65,1019.74,-9,-9,341.20,11.48,336.21,2,366.56,2,-30.35,0.65,5.86,79.03,
AOML_Brown,RB200360,50.937,19022003,22:29:32,25.479,-76.170,347.48,376.33,1019.70,1019.40,24.38,24.22,36.73,10.47,185.10,31.65,1019.70,-9,-9,342.00,11.88,336.41,2,366.56,2,-30.15,0.65,6.31,82.20,
AOML_Brown,RB200361,50.940,19022003,22:33:52,25.472,-76.156,347.74,376.33,1019.61,1019.49,24.37,24.23,36.72,10.84,180.47,31.65,1019.61,-9,-9,346.00,13.18,336.80,2,366.56,2,-29.76,0.64,7.39,92.44,
AOML_Brown,RB200362,50.952,19022003,22:50:32,25.443,-76.103,348.17,376.33,1019.57,1019.50,24.26,24.20,36.68,10.80,177.72,31.59,1019.57,-9,-9,345.30,11.68,338.30,2,366.56,2,-28.27,0.65,5.75,85.24,
AOML_Brown,RB200363,50.955,19022003,22:54:52,25.436,-76.089,348.53,376.33,1019.65,1019.53,24.35,24.24,36.69,10.63,177.81,31.54,1019.65,-9,-9,343.80,11.98,338.02,2,366.56,2,-28.55,0.65,6.29,84.52,
AOML_Brown,RB200364,50.958,19022003,22:59:32,25.428,-76.074,348.93,376.33,1019.62,1019.59,24.35,24.23,36.68,10.55,181.97,31.49,1019.62,-9,-9,341.90,12.18,338.21,2,366.56,2,-28.35,0.65,6.51,80.99,
AOML_Brown,RB200365,50.961,19022003,23:03:52,25.420,-76.060,349.22,376.33,1019.95,1019.71,24.35,24.20,36.67,10.41,181.91,31.43,1019.95,-9,-9,340.70,11.68,338.32,2,366.56,2,-28.24,0.66,6.24,78.49,
AOML_Brown,RB200366,50.973,19022003,23:20:32,25.391,-76.006,347.11,376.24,1019.64,1019.58,24.32,24.20,36.72,10.37,181.04,31.26,1019.64,-9,-9,337.50,11.68,336.54,2,367.25,2,-30.71,0.64,6.35,68.20,
AOML_Brown,RB200367,50.976,19022003,23:24:52,25.383,-75.991,346.84,376.24,1019.58,1019.55,24.30,24.11,36.74,10.65,182.48,31.22,1019.58,-9,-9,341.40,11.59,335.30,2,367.25,2,-31.95,0.64,5.82,73.00,
AOML_Brown,RB200368,50.979,19022003,23:29:32,25.375,-75.976,346.84,376.24,1019.63,1019.53,24.14,23.81,36.74,10.69,184.69,31.16,1019.63,-9,-9,343.50,11.29,333.75,2,367.25,2,-33.50,0.66,5.60,76.61,
AOML_Brown,RB200369,50.982,19022003,23:33:52,25.368,-75.962,347.82,376.24,1019.53,1019.57,23.65,23.20,36.75,10.63,184.07,31.10,1019.53,-9,-9,346.90,10.89,333.35,2,367.25,2,-33.90,0.65,5.02,78.03,
AOML_Brown,RB200370,50.993,19022003,23:50:32,25.339,-75.907,347.44,376.24,1019.77,1019.63,22.89,22.67,36.70,10.47,174.44,30.98,1019.77,-9,-9,345.50,11.19,336.38,2,367.25,2,-30.87,0.67,5.43,79.63,
AOML_Brown,RB200371,50.996,19022003,23:54:52,25.331,-75.893,349.78,376.24,1019.68,1019.53,22.74,22.48,36.71,10.57,178.62,30.94,1019.68,-9,-9,341.40,10.89,338.18,2,367.25,2,-29.07,0.69,5.18,72.84,
AOML_Brown,RB200372,51.000,19022003,23:59:33,25.324,-75.877,349.13,376.24,1019.75,1019.64,22.76,22.93,36.70,10.40,178.61,30.90,1019.75,-9,-9,343.60,10.39,343.09,2,367.25,2,-24.17,0.68,4.71,79.81,
AOML_Brown,RB200373,51.003,20022003,00:03:53,25.316,-75.862,348.01,376.24,1019.85,1019.70,23.06,23.03,36.69,10.52,181.10,30.86,1019.85,-9,-9,336.50,10.49,339.31,2,367.25,2,-27.94,0.66,5.29,66.64,
AOML_Brown,RB200374,51.014,20022003,00:20:33,25.286,-75.808,346.56,376.45,1019.99,1019.97,23.38,23.21,36.75,10.72,181.67,30.78,1019.99,-9,-9,343.00,10.19,336.02,2,367.36,2,-31.34,0.66,4.38,75.12,
AOML_Brown,RB200375,51.017,20022003,00:24:53,25.278,-75.794,346.68,376.45,1020.16,1019.95,23.38,23.36,36.72,10.43,183.07,30.75,1020.16,-9,-9,344.80,10.39,338.02,2,367.36,2,-29.34,0.66,4.42,81.43,
AOML_Brown,RB200376,51.021,20022003,00:29:33,25.270,-75.778,347.35,376.45,1020.02,1020.00,23.57,23.50,36.72,10.56,185.86,30.72,1020.02,-9,-9,355.20,10.78,337.95,2,367.36,2,-29.41,0.65,4.36,103.55,
AOML_Brown,RB200377,51.024,20022003,00:33:53,25.263,-75.764,346.85,376.45,1020.19,1019.95,23.59,23.39,36.73,10.41,186.79,30.69,1020.19,-9,-9,359.00,11.19,335.84,2,367.36,2,-31.52,0.65,4.75,114.75,
AOML_Brown,RB200378,51.035,20022003,00:50:33,25.235,-75.709,347.29,376.45,1020.19,1020.24,23.83,23.76,36.73,10.90,175.89,30.64,1020.19,-9,-9,355.90,10.98,337.74,2,367.36,2,-29.61,0.65,4.69,109.17,
AOML_Brown,RB200379,51.038,20022003,00:54:53,25.228,-75.695,347.87,376.45,1020.28,1020.30,23.92,23.81,36.73,10.65,179.11,30.63,1020.28,-9,-9,357.00,10.89,337.87,2,367.36,2,-29.49,0.66,4.58,111.85,
AOML_Brown,RB200380,51.041,20022003,00:59:33,25.220,-75.680,348.02,376.45,1020.35,1020.21,23.95,23.83,36.73,10.61,179.88,30.61,1020.35,-9,-9,358.90,10.09,337.89,2,367.36,2,-29.47,0.65,3.71,115.31,
AOML_Brown,RB200381,51.044,20022003,01:03:53,25.213,-75.665,347.64,376.45,1020.40,1020.25,23.92,23.78,36.73,10.35,183.38,30.58,1020.40,-9,-9,358.30,10.69,337.20,2,367.36,2,-30.16,0.65,4.47,114.91,
AOML_Brown,RB200382,51.056,20022003,01:20:33,25.186,-75.612,345.35,376.44,1020.46,1020.44,23.73,23.58,36.73,10.67,179.36,30.55,1020.46,-9,-9,358.80,11.09,335.01,2,367.26,2,-32.24,0.65,4.87,114.53,
AOML_Brown,RB200383,51.059,20022003,01:24:53,25.179,-75.597,345.39,376.44,1020.51,1020.44,23.71,23.54,36.73,10.59,183.77,30.53,1020.51,-9,-9,358.80,11.39,334.89,2,367.26,2,-32.37,0.66,5.01,115.97,
AOML_Brown,RB200384,51.062,20022003,01:29:33,25.172,-75.582,345.47,376.44,1020.48,1020.53,23.66,23.52,36.72,10.61,187.67,30.51,1020.48,-9,-9,0.50,11.09,335.31,2,367.26,2,-31.95,0.67,5.12,120.08,
AOML_Brown,RB200385,51.065,20022003,01:33:53,25.165,-75.568,345.72,376.44,1020.58,1020.61,23.65,23.48,36.73,10.40,187.78,30.49,1020.58,-9,-9,358.30,11.79,335.26,2,367.26,2,-32.00,0.68,5.98,115.35,
AOML_Brown,RB200386,51.077,20022003,01:50:33,25.134,-75.514,346.97,376.44,1020.42,1020.21,23.97,23.93,36.66,10.59,176.94,30.46,1020.42,-9,-9,348.70,13.08,337.87,2,367.26,2,-29.39,0.66,6.80,102.34,
AOML_Brown,RB200387,51.080,20022003,01:54:53,25.127,-75.499,347.70,376.44,1020.29,1020.19,24.08,24.02,36.62,10.64,179.53,30.45,1020.29,-9,-9,350.40,11.98,338.19,2,367.26,2,-29.07,0.66,5.70,105.06,
AOML_Brown,RB200388,51.083,20022003,01:59:33,25.118,-75.483,348.29,376.44,1020.40,1020.20,24.10,24.02,36.61,10.60,184.34,30.42,1020.40,-9,-9,348.80,12.38,338.57,2,367.26,2,-28.69,0.66,6.11,102.11,
AOML_Brown,RB200389,51.086,20022003,02:03:53,25.111,-75.469,348.39,376.44,1020.40,1020.25,24.15,24.14,36.61,10.40,185.82,30.40,1020.40,-9,-9,350.30,12.09,339.45,2,367.26,2,-27.81,0.66,5.85,105.42,
AOML_Brown,RB200390,51.098,20022003,02:20:33,25.081,-75.412,349.05,376.38,1020.32,1019.86,24.49,24.39,36.75,10.49,181.26,30.37,1020.32,-9,-9,351.30,12.29,338.78,2,366.67,2,-27.90,0.70,5.81,109.05,
AOML_Brown,RB200391,51.101,20022003,02:24:53,25.072,-75.398,349.38,376.38,1020.06,1020.02,24.54,24.46,36.76,10.71,182.90,30.37,1020.06,-9,-9,351.20,12.88,339.23,2,366.67,2,-27.44,0.69,6.55,109.59,
AOML_Brown,RB200392,51.104,20022003,02:29:33,25.063,-75.383,349.82,376.38,1020.18,1019.91,24.54,24.42,36.76,10.59,185.06,30.36,1020.18,-9,-9,354.80,13.78,339.18,2,366.67,2,-27.49,0.70,7.20,117.01,
AOML_Brown,RB200393,51.107,20022003,02:33:53,25.055,-75.369,349.97,376.38,1020.12,1019.85,24.55,24.43,36.76,10.50,189.58,30.34,1020.12,-9,-9,353.50,14.08,339.29,2,366.67,2,-27.39,0.69,7.50,110.23,
AOML_Brown,RB200394,51.118,20022003,02:50:33,25.024,-75.317,350.13,376.38,1020.21,1019.89,24.31,24.22,36.74,10.88,177.05,30.31,1020.21,-9,-9,0.70,14.88,340.00,2,366.67,2,-26.68,0.72,8.66,115.69,
AOML_Brown,RB200395,51.121,20022003,02:54:53,25.016,-75.303,349.72,376.38,1020.26,1020.16,24.38,24.36,36.74,10.63,178.17,30.30,1020.26,-9,-9,358.10,14.08,340.48,2,366.67,2,-26.19,0.70,7.76,116.65,
AOML_Brown,RB200396,51.125,20022003,02:59:33,25.008,-75.288,350.03,376.38,1020.26,1019.83,24.62,24.80,36.76,10.59,180.57,30.27,1020.26,-9,-9,356.60,14.78,343.13,2,366.67,2,-23.55,0.68,8.53,110.60,
AOML_Brown,RB200397,51.128,20022003,03:03:53,25.002,-75.274,350.91,376.38,1020.23,1020.22,24.95,24.94,36.76,10.50,181.85,30.24,1020.23,-9,-9,357.50,13.78,341.43,2,366.67,2,-25.24,0.66,7.62,111.47,
AOML_Brown,RB200398,51.139,20022003,03:20:33,24.975,-75.222,352.03,376.41,1020.15,1019.96,25.38,25.23,36.77,10.47,178.79,30.17,1020.15,-9,-9,358.30,14.88,340.42,2,366.24,2,-25.82,0.64,8.76,117.51,
AOML_Brown,RB200399,51.142,20022003,03:24:53,24.967,-75.209,352.16,376.41,1020.03,1019.95,25.20,24.96,36.77,10.73,183.13,30.16,1020.03,-9,-9,358.60,15.08,339.56,2,366.24,2,-26.68,0.65,9.01,117.06,
AOML_Brown,RB200400,51.146,20022003,03:29:33,24.959,-75.194,352.58,376.41,1020.23,1019.91,25.03,24.82,36.79,10.72,183.58,30.13,1020.23,-9,-9,3.30,14.28,340.40,2,366.24,2,-25.85,0.65,8.28,122.60,
AOML_Brown,RB200401,51.149,20022003,03:33:53,24.952,-75.181,352.14,376.41,1020.05,1019.81,24.92,24.90,36.76,10.63,186.43,30.09,1020.05,-9,-9,358.40,15.38,342.37,2,366.24,2,-23.87,0.65,9.47,115.30,
AOML_Brown,RB200402,51.160,20022003,03:50:33,24.925,-75.131,352.16,376.41,1019.94,1019.88,25.10,25.01,36.75,10.63,177.34,30.03,1019.94,-9,-9,0.10,13.88,341.45,2,366.24,2,-24.79,0.64,7.86,118.58,
AOML_Brown,RB200403,51.163,20022003,03:54:53,24.919,-75.118,352.50,376.41,1020.06,1020.02,25.12,25.03,36.76,10.79,178.08,30.00,1020.06,-9,-9,1.40,14.38,341.80,2,366.24,2,-24.44,0.64,8.42,119.79,
AOML_Brown,RB200404,51.166,20022003,03:59:33,24.911,-75.104,352.87,376.41,1020.02,1019.76,25.11,25.03,36.76,10.63,178.41,29.98,1020.02,-9,-9,357.30,14.58,342.21,2,366.24,2,-24.03,0.64,8.73,113.29,
AOML_Brown,RB200405,51.169,20022003,04:03:53,24.905,-75.091,353.10,376.41,1019.96,1019.81,25.12,25.02,36.76,10.54,181.38,29.95,1019.96,-9,-9,356.40,15.58,342.22,2,366.24,2,-24.02,0.64,9.77,114.61,
AOML_Brown,RB200406,51.181,20022003,04:20:33,24.879,-75.042,353.21,376.35,1019.97,1019.82,25.09,25.01,36.76,10.52,179.13,29.91,1019.97,-9,-9,358.80,14.58,342.60,2,366.11,2,-23.52,0.64,8.72,115.49,
AOML_Brown,RB200407,51.184,20022003,04:24:53,24.872,-75.029,353.40,376.35,1019.99,1019.69,25.09,25.00,36.76,10.45,182.47,29.90,1019.99,-9,-9,353.20,13.49,342.69,2,366.11,2,-23.43,0.64,7.74,107.00,
AOML_Brown,RB200408,51.187,20022003,04:29:33,24.865,-75.015,353.46,376.35,1019.95,1019.56,25.08,24.97,36.76,10.48,184.42,29.87,1019.95,-9,-9,351.90,15.38,342.43,2,366.11,2,-23.68,0.64,9.76,106.17,
AOML_Brown,RB200409,51.190,20022003,04:33:53,24.858,-75.003,353.23,376.35,1019.93,1019.38,25.05,24.94,36.76,10.56,188.90,29.84,1019.93,-9,-9,348.20,14.38,342.18,2,366.11,2,-23.93,0.64,8.82,100.52,
AOML_Brown,RB200410,51.202,20022003,04:50:33,24.832,-74.953,352.45,376.35,1019.91,1019.69,25.03,24.92,36.76,10.49,174.87,29.80,1019.91,-9,-9,349.60,14.98,341.53,2,366.11,2,-24.58,0.64,9.37,106.53,
AOML_Brown,RB200411,51.205,20022003,04:54:53,24.825,-74.941,352.16,376.35,1019.94,1019.55,25.02,24.93,36.76,10.55,178.10,29.79,1019.94,-9,-9,350.10,13.49,341.53,2,366.11,2,-24.58,0.64,7.97,103.99,
AOML_Brown,RB200412,51.208,20022003,04:59:33,24.818,-74.927,352.45,376.35,1019.89,1019.60,25.04,24.93,36.76,10.55,177.50,29.78,1019.89,-9,-9,354.10,13.78,341.45,2,366.11,2,-24.66,0.65,8.38,112.06,
AOML_Brown,RB200413,51.211,20022003,05:03:53,24.811,-74.914,352.73,376.35,1019.82,1019.87,25.04,24.94,36.76,10.63,181.71,29.76,1019.82,-9,-9,351.10,12.58,341.87,2,366.11,2,-24.24,0.64,7.05,105.56,
AOML_Brown,RB200414,51.223,20022003,05:20:33,24.786,-74.866,353.91,376.32,1019.68,1019.29,25.17,25.14,36.77,10.67,178.86,29.77,1019.68,-9,-9,350.40,13.78,343.79,2,365.63,2,-21.85,0.65,8.21,107.64,
AOML_Brown,RB200415,51.226,20022003,05:24:53,24.779,-74.853,354.08,376.32,1019.60,1019.46,25.30,25.37,36.76,10.41,183.04,29.77,1019.60,-9,-9,347.80,14.38,345.00,2,365.63,2,-20.63,0.64,8.83,103.68,
AOML_Brown,RB200416,51.229,20022003,05:29:33,24.772,-74.840,353.55,376.32,1019.66,1019.30,25.50,25.49,36.76,10.14,185.66,29.76,1019.66,-9,-9,342.60,14.38,343.38,2,365.63,2,-22.25,0.63,9.18,100.18,
AOML_Brown,RB200417,51.232,20022003,05:33:53,24.765,-74.828,352.80,376.32,1019.52,1019.20,25.57,25.52,36.76,10.61,186.77,29.75,1019.52,-9,-9,348.00,13.49,342.16,2,365.63,2,-23.47,0.63,8.22,103.32,
AOML_Brown,RB200418,51.243,20022003,05:50:33,24.739,-74.780,352.03,376.32,1019.46,1019.20,25.58,25.53,36.76,10.68,173.33,29.77,1019.46,-9,-9,344.00,14.48,341.34,2,365.63,2,-24.29,0.63,9.09,103.90,
AOML_Brown,RB200419,51.246,20022003,05:54:53,24.732,-74.767,352.46,376.32,1019.52,1019.20,25.61,25.52,36.76,10.72,177.28,29.78,1019.52,-9,-9,348.00,12.38,341.28,2,365.63,2,-24.35,0.64,7.23,102.36,
AOML_Brown,RB200420,51.250,20022003,05:59:33,24.725,-74.754,352.80,376.32,1019.26,1018.90,25.62,25.54,36.75,10.28,178.86,29.78,1019.26,-9,-9,352.20,13.78,341.63,2,365.63,2,-24.00,0.63,8.31,111.49,